Boise, ID

11:33 PM MDT on July 24, 2017 (GMT -0600)
Boise Air Term

Weather History for KBOI - October, 2012

Change the Weather History Date:

Tuesday, October 30, 2012

  Actual Average Record
Temperature  
Mean Temperature 60 °F 47 °F  
Max Temperature 73 °F 57 °F 77 °F (1937)
Min Temperature 47 °F 37 °F 16 °F (1991)
Degree Days  
Heating Degree Days 5 18  
Month to date heating degree days 355 366  
Since 1 July heating degree days 372 487  
Cooling Degree Days 0 0  
Month to date cooling degree days 1 7  
Year to date cooling degree days 1274 941  
Growing Degree Days 10 (Base 50)    
Moisture  
Dew Point 39 °F    
Average Humidity 55    
Maximum Humidity 86    
Minimum Humidity 24    
Precipitation  
Precipitation 0.00 in 0.04 in 0.50 in (1945)
Month to date precipitation 0.98 0.72  
Year to date precipitation 9.89 8.80  
Snow  
Snow 0.00 in 0.00 in 0.70 in (1971)
Month to date snowfall T 0.1  
Since 1 July snowfall T 0.1  
Snow Depth 0.00 in    
Sea Level Pressure  
Sea Level Pressure 30.02 in    
Wind  
Wind Speed 7 mph (ESE)    
Max Wind Speed 15 mph    
Max Gust Speed 18 mph    
Visibility 10 miles    
Events      
T = Trace of Precipitation, MM = Missing Value Source: NWS Daily Summary

Daily Weather History Graph

Daily Weather History Graph

Search for Another Location

Airport or City:

Trip Planner

Search our weather history database for the weather conditions in past years. The results will help you decide how hot, cold, wet, or windy it might be!

Date:

Astronomy

Oct. 30, 2012 Rise Set
Actual Time 8:18 AM MDT 6:37 PM MDT
Civil Twilight 7:48 AM MDT 7:07 PM MDT
Nautical Twilight 7:15 AM MDT 7:41 PM MDT
Astronomical Twilight 6:41 AM MDT 8:14 PM MDT
Moon 7:07 PM MDT (10/30) 9:11 AM MDT (10/30)
Length of Visible Light 11h 18m
Length of Day
10h 19m
Full, 99% of the Moon is Illuminated
Oct 30
Full
Nov 6
Last Quarter
Nov 13
New
Nov 20
First Quarter
Nov 28
Full

Hourly Weather History & Observations

Time (MDT) Temp. Dew Point Humidity Pressure Visibility Wind Dir Wind Speed Gust Speed Precip Events Conditions
12:53 AM 48.0 °F 42.1 °F 80% 30.09 in 10.0 mi ESE 3.5 mph - N/A   Clear
1:53 AM 51.1 °F 43.0 °F 74% 30.08 in 10.0 mi SSE 11.5 mph - N/A   Clear
2:53 AM 53.1 °F 42.1 °F 66% 30.06 in 10.0 mi SE 11.5 mph - N/A   Clear
3:53 AM 54.0 °F 41.0 °F 62% 30.05 in 10.0 mi SE 9.2 mph - N/A   Clear
4:53 AM 54.0 °F 41.0 °F 62% 30.04 in 10.0 mi ESE 11.5 mph - N/A   Clear
5:53 AM 53.1 °F 41.0 °F 64% 30.04 in 10.0 mi East 6.9 mph - N/A   Scattered Clouds
6:53 AM 46.9 °F 42.1 °F 83% 30.06 in 10.0 mi NW 4.6 mph - N/A   Clear
7:53 AM 48.0 °F 42.1 °F 80% 30.07 in 10.0 mi Calm Calm - N/A   Partly Cloudy
8:53 AM 48.0 °F 43.0 °F 83% 30.09 in 9.0 mi NW 3.5 mph - N/A   Overcast
9:53 AM 50.0 °F 43.0 °F 77% 30.10 in 10.0 mi North 4.6 mph - N/A   Overcast
10:53 AM 54.0 °F 44.1 °F 69% 30.09 in 10.0 mi SE 3.5 mph - N/A   Overcast
11:53 AM 60.1 °F 41.0 °F 49% 30.07 in 10.0 mi ESE 3.5 mph - N/A   Clear
12:53 PM 64.9 °F 42.1 °F 43% 30.06 in 10.0 mi NNE 5.8 mph - N/A   Clear
1:53 PM 70.0 °F 39.0 °F 32% 30.02 in 10.0 mi East 4.6 mph - N/A   Clear
2:53 PM 72.0 °F 33.1 °F 24% 29.99 in 10.0 mi Calm Calm - N/A   Clear
3:53 PM 71.1 °F 33.1 °F 25% 29.97 in 10.0 mi NE 3.5 mph - N/A   Clear
4:53 PM 71.6 °F 33.8 °F 25% 30.02 in 10.0 mi ESE 4.6 mph - N/A   Clear
5:53 PM 71.1 °F 32.0 °F 24% 29.95 in 10.0 mi ESE 6.9 mph - N/A   Clear
6:53 PM 64.9 °F 36.0 °F 34% 29.97 in 10.0 mi SSE 6.9 mph - N/A   Clear
7:53 PM 64.0 °F 37.0 °F 37% 29.96 in 10.0 mi SE 8.1 mph - N/A   Clear
8:53 PM 63.0 °F 37.9 °F 40% 29.94 in 10.0 mi SE 10.4 mph - N/A   Clear
9:53 PM 62.1 °F 37.9 °F 41% 29.96 in 10.0 mi SE 11.5 mph - N/A   Clear
10:53 PM 59.0 °F 37.9 °F 46% 29.96 in 10.0 mi SE 9.2 mph - N/A   Clear
11:53 PM 61.0 °F 37.0 °F 41% 29.94 in 10.0 mi SE 12.7 mph - N/A   Clear